| time (UTC) | temp F | wind direction | speed knots | gust knots | rain 1hr in | rain 24hr in | rain mn in | humidity % | barometer mb |
| 20260905024602 | 69 | 268 | 0.0 | 1.7 | 0.00 | 0.00 | 0.00 | 78 | 1017.7 |
| 20260905023024 | 71 | 326 | 0.9 | 2.6 | 0.00 | 0.00 | 0.00 | 77 | 1017.7 |
| 20260905021512 | 71 | 275 | 0.9 | 3.5 | 0.00 | 0.00 | 0.00 | 76 | 1017.6 |
| 20260905020051 | 71 | 279 | 0.0 | 3.5 | 0.00 | 0.00 | 0.00 | 77 | 1017.8 |
| 20260905014518 | 70 | 324 | 0.9 | 4.3 | 0.00 | 0.00 | 0.00 | 80 | 1018.0 |
| 20260905013103 | 70 | 339 | 0.9 | 3.5 | 0.00 | 0.00 | 0.00 | 80 | 1018.1 |
| 20260905011506 | 70 | 329 | 0.0 | 2.6 | 0.00 | 0.00 | 0.00 | 81 | 1018.1 |
| 20260905004529 | 68 | 262 | 0.0 | 2.6 | 0.00 | 0.00 | 0.00 | 83 | 1018.1 |
| 20260905003048 | 68 | 289 | 0.0 | 3.5 | 0.00 | 0.00 | 0.00 | 82 | 1018.2 |
| 20260905001518 | 68 | 275 | 0.0 | 0.9 | 0.00 | 0.00 | 0.00 | 83 | 1018.3 |
| 20260905000045 | 68 | 269 | 0.9 | 1.7 | 0.00 | 0.00 | 0.00 | 83 | 1018.4 |
| 20260904234526 | 68 | 276 | 0.0 | 1.7 | 0.00 | 0.00 | 0.00 | 83 | 1018.5 |
| 20260904233025 | 68 | 273 | 0.9 | 1.7 | 0.00 | 0.00 | 0.00 | 83 | 1018.5 |
| 20260904231607 | 68 | 302 | 0.0 | 2.6 | 0.00 | 0.00 | 0.00 | 83 | 1018.7 |
| 20260904230034 | 68 | 276 | 1.7 | 3.5 | 0.00 | 0.00 | 0.00 | 82 | 1018.5 |
| 20260904224547 | 68 | 310 | 0.0 | 0.9 | 0.00 | 0.00 | 0.00 | 82 | 1018.6 |
| 20260904223038 | 69 | 68 | 0.0 | 1.7 | 0.00 | 0.00 | 0.00 | 82 | 1018.7 |
| 20260904221533 | 69 | 314 | 0.0 | 0.9 | 0.00 | 0.00 | 0.00 | 81 | 1018.8 |
| 20260904220104 | 70 | 319 | 0.0 | 1.7 | 0.00 | 0.00 | 0.00 | 81 | 1018.7 |
| 20260904214547 | 70 | 294 | 0.0 | 0.0 | 0.00 | 0.00 | 0.00 | 81 | 1018.8 |
| 20260904213025 | 70 | 285 | 0.0 | 1.7 | 0.00 | 0.00 | 0.00 | 80 | 1018.8 |
| 20260904211516 | 71 | 283 | 0.0 | 0.0 | 0.00 | 0.00 | 0.00 | 80 | 1018.9 |
| 20260904210022 | 71 | 283 | 0.0 | 2.6 | 0.00 | 0.00 | 0.00 | 80 | 1018.8 |
| 20260904204515 | 71 | 81 | 0.0 | 3.5 | 0.00 | 0.00 | 0.00 | 81 | 1018.8 |
| 20260904203103 | 70 | 88 | 0.9 | 1.7 | 0.00 | 0.00 | 0.00 | 80 | 1019.0 |
| 20260904201511 | 71 | 295 | 0.9 | 3.5 | 0.00 | 0.00 | 0.00 | 79 | 1019.0 |
| 20260904200026 | 72 | 282 | 0.9 | 1.7 | 0.00 | 0.00 | 0.00 | 79 | 1018.9 |
| 20260904194502 | 72 | 292 | 0.0 | 1.7 | 0.00 | 0.00 | 0.00 | 79 | 1018.8 |
| 20260904193057 | 72 | 285 | 0.0 | 0.0 | 0.00 | 0.00 | 0.00 | 79 | 1018.7 |
| 20260904191533 | 73 | 296 | 0.0 | 1.7 | 0.00 | 0.00 | 0.00 | 78 | 1018.6 |
| 20260904190045 | 74 | 338 | 0.0 | 2.6 | 0.00 | 0.00 | 0.00 | 77 | 1018.4 |
| 20260904184513 | 74 | 277 | 0.0 | 0.9 | 0.00 | 0.00 | 0.00 | 76 | 1018.4 |
| 20260904183101 | 75 | 277 | 0.0 | 1.7 | 0.00 | 0.00 | 0.00 | 75 | 1018.2 |
| 20260904181515 | 76 | 302 | 0.0 | 1.7 | 0.00 | 0.00 | 0.00 | 73 | 1018.2 |
| 20260904180036 | 79 | 281 | 0.0 | 0.0 | 0.00 | 0.00 | 0.00 | 72 | 1018.1 |
| 20260904174539 | 80 | 281 | 0.0 | 0.0 | 0.00 | 0.00 | 0.00 | 69 | 1018.0 |
| 20260904173110 | 81 | 281 | 0.0 | 0.9 | 0.00 | 0.00 | 0.00 | 67 | 1018.0 |
| 20260904171523 | 84 | 281 | 0.9 | 1.7 | 0.00 | 0.00 | 0.00 | 64 | 1017.8 |
| 20260904170041 | 87 | 237 | 0.0 | 0.0 | 0.00 | 0.00 | 0.00 | 55 | 1017.7 |
| 20260904164510 | 89 | 231 | 0.0 | 0.0 | 0.00 | 0.00 | 0.00 | 45 | 1017.8 |
| 20260904163022 | 90 | 213 | 0.0 | 1.7 | 0.00 | 0.00 | 0.00 | 45 | 1018.0 |
| 20260904161606 | 89 | 121 | 0.0 | 1.7 | 0.00 | 0.00 | 0.00 | 48 | 1018.0 |
| 20260904160044 | 89 | 220 | 0.9 | 3.5 | 0.00 | 0.00 | 0.00 | 46 | 1018.2 |
| 20260904154510 | 89 | 215 | 0.9 | 3.5 | 0.00 | 0.00 | 0.00 | 48 | 1018.4 |
| 20260904153019 | 89 | 110 | 0.0 | 2.6 | 0.00 | 0.00 | 0.00 | 47 | 1018.4 |
| 20260904151503 | 89 | 235 | 0.0 | 2.6 | 0.00 | 0.00 | 0.00 | 45 | 1018.5 |
| 20260904150008 | 89 | 240 | 0.9 | 2.6 | 0.00 | 0.00 | 0.00 | 44 | 1018.6 |
| 20260904144524 | 89 | 230 | 2.6 | 5.2 | 0.00 | 0.00 | 0.00 | 46 | 1018.7 |
| 20260904143003 | 89 | 249 | 0.0 | 4.3 | 0.00 | 0.00 | 0.00 | 46 | 1018.9 |
| 20260904141557 | 89 | 208 | 1.7 | 5.2 | 0.00 | 0.00 | 0.00 | 48 | 1018.8 |
| 20260904140042 | 90 | 210 | 0.0 | 2.6 | 0.00 | 0.00 | 0.00 | 48 | 1018.9 |
| 20260904134525 | 89 | 191 | 0.9 | 4.3 | 0.00 | 0.00 | 0.00 | 48 | 1019.1 |
| 20260904133004 | 88 | 231 | 0.9 | 3.5 | 0.00 | 0.00 | 0.00 | 48 | 1019.2 |
| 20260904131541 | 88 | 222 | 1.7 | 3.5 | 0.00 | 0.00 | 0.00 | 48 | 1019.3 |
| 20260904130023 | 87 | 212 | 0.0 | 4.3 | 0.00 | 0.00 | 0.00 | 50 | 1019.4 |
| 20260904124533 | 87 | 132 | 0.9 | 5.2 | 0.00 | 0.00 | 0.00 | 50 | 1019.6 |
| 20260904123040 | 88 | 164 | 0.0 | 2.6 | 0.00 | 0.00 | 0.00 | 49 | 1019.8 |
| 20260904121534 | 86 | 125 | 0.9 | 5.2 | 0.00 | 0.00 | 0.00 | 48 | 1019.9 |
| 20260904120040 | 87 | 244 | 0.9 | 4.3 | 0.00 | 0.00 | 0.00 | 49 | 1019.9 |
| 20260904114503 | 85 | 218 | 1.7 | 7.0 | 0.00 | 0.00 | 0.00 | 51 | 1020.0 |
| 20260904113011 | 86 | 92 | 1.7 | 4.3 | 0.00 | 0.00 | 0.00 | 52 | 1020.1 |
| 20260904111546 | 86 | 188 | 1.7 | 3.5 | 0.00 | 0.00 | 0.00 | 51 | 1020.2 |
| 20260904110006 | 86 | 153 | 0.0 | 1.7 | 0.00 | 0.00 | 0.00 | 49 | 1020.3 |
| 20260904104550 | 84 | 200 | 0.0 | 3.5 | 0.00 | 0.00 | 0.00 | 54 | 1020.6 |
| 20260904103055 | 83 | 275 | 0.9 | 3.5 | 0.00 | 0.00 | 0.00 | 56 | 1020.7 |
| 20260904101515 | 83 | 217 | 1.7 | 2.6 | 0.00 | 0.00 | 0.00 | 54 | 1020.8 |
| 20260904100025 | 84 | 183 | 0.0 | 3.5 | 0.00 | 0.00 | 0.00 | 54 | 1021.1 |
| 20260904094508 | 82 | 131 | 0.9 | 2.6 | 0.00 | 0.00 | 0.00 | 56 | 1021.1 |
| 20260904093051 | 80 | 278 | 1.7 | 3.5 | 0.00 | 0.00 | 0.00 | 55 | 1021.5 |
| 20260904091550 | 80 | 275 | 1.7 | 6.1 | 0.00 | 0.00 | 0.00 | 57 | 1021.6 |
| 20260904090002 | 80 | 280 | 0.9 | 1.7 | 0.00 | 0.00 | 0.00 | 57 | 1021.6 |
| 20260904084502 | 79 | 262 | 0.0 | 2.6 | 0.00 | 0.00 | 0.00 | 58 | 1021.6 |
| 20260904083011 | 78 | 172 | 0.0 | 1.7 | 0.00 | 0.00 | 0.00 | 57 | 1021.5 |
| 20260904081506 | 78 | 123 | 0.9 | 2.6 | 0.00 | 0.00 | 0.00 | 58 | 1021.5 |
| 20260904080105 | 77 | 74 | 0.0 | 2.6 | 0.00 | 0.00 | 0.00 | 59 | 1021.5 |
| 20260904074533 | 76 | 150 | 0.0 | 2.6 | 0.00 | 0.00 | 0.00 | 63 | 1021.5 |
| 20260904073006 | 75 | 106 | 0.0 | 2.6 | 0.00 | 0.00 | 0.00 | 64 | 1021.5 |
| 20260904071525 | 74 | 111 | 0.0 | 5.2 | 0.00 | 0.00 | 0.00 | 67 | 1021.4 |
| 20260904070117 | 74 | 82 | 1.7 | 3.5 | 0.00 | 0.00 | 0.00 | 63 | 1021.3 |
| 20260904064507 | 73 | 292 | 0.9 | 3.5 | 0.00 | 0.00 | 0.00 | 66 | 1021.2 |
| 20260904063027 | 72 | 331 | 0.0 | 3.5 | 0.00 | 0.00 | 0.00 | 71 | 1021.2 |
| 20260904061552 | 71 | 270 | 0.0 | 2.6 | 0.00 | 0.00 | 0.00 | 69 | 1020.9 |
| 20260904060037 | 71 | 330 | 0.9 | 2.6 | 0.00 | 0.00 | 0.00 | 71 | 1021.0 |
| 20260904054601 | 68 | 333 | 0.9 | 5.2 | 0.00 | 0.00 | 0.00 | 74 | 1021.0 |
| 20260904053029 | 67 | 350 | 0.0 | 2.6 | 0.00 | 0.00 | 0.00 | 74 | 1020.9 |
| 20260904051534 | 68 | 292 | 0.0 | 5.2 | 0.00 | 0.00 | 0.00 | 74 | 1020.8 |
| 20260904050040 | 66 | 295 | 0.9 | 4.3 | 0.00 | 0.00 | 0.00 | 78 | 1020.7 |
| 20260904044511 | 67 | 283 | 1.7 | 4.3 | 0.00 | 0.00 | 0.00 | 76 | 1020.5 |
| 20260904043035 | 67 | 293 | 0.9 | 3.5 | 0.00 | 0.00 | 0.00 | 77 | 1020.4 |
| 20260904041521 | 67 | 340 | 0.9 | 7.0 | 0.00 | 0.00 | 0.00 | 76 | 1020.4 |
| 20260904040059 | 68 | 284 | 0.9 | 3.5 | 0.00 | 0.00 | 0.00 | 74 | 1020.4 |
| 20260904034558 | 68 | 285 | 1.7 | 3.5 | 0.00 | 0.00 | 0.00 | 75 | 1020.7 |
| 20260904033056 | 68 | 142 | 0.0 | 6.1 | 0.00 | 0.00 | 0.00 | 76 | 1020.6 |
| 20260904031529 | 68 | 273 | 1.7 | 5.2 | 0.00 | 0.00 | 0.00 | 76 | 1020.5 |
| 20260904030032 | 68 | 294 | 0.9 | 2.6 | 0.00 | 0.00 | 0.00 | 76 | 1020.6 |